Location: Chavannes
(47.1090°N, 0.2226°W)
Time: 05:13:19
(UTC+00:00)

CZ-4 R/B - Pass Details

Date: 16 October 2021
Orbit: 531 x 595 km, 97.8° (Epoch: 03 December)

Event Time Altitude Azimuth Distance (km) Brightness Sun altitude
Rises 19:38:34 0° 199° (SSW) 2,703 4.9 -25.7°
Reaches altitude 10° 19:41:02 10° 215° (SW) 1,827 4.2 -26.1°
Maximum altitude 19:44:09 22° 267° (W) 1,248 3.8 -26.6°
Drops below altitude 10° 19:47:20 10° 319° (NW) 1,870 4.7 -27.1°
Sets 19:49:54 0° 335° (NNW) 2,786 5.5 -27.5°
